Orbital Elements
Epoch 2012 Mar. 14.0 TT = JDT 2456000.5
T 2012 Feb. 26.16411 TT Kobayashi
q 2.0508683 (2000.0) P Q
n 0.15236411 Peri. 46.67099 -0.51569787 +0.85608472
a 3.4717432 Node 192.41852 -0.82495707 -0.50695127
e 0.4092684 Incl. 9.17049 -0.23130400 -0.10059503
P 6.47
From 302 observations 1986 May 3-2012 Nov. 6, mean residual 0".7.
Nongravitational parameters A1 = +0.32, A2 = -0.0661.
|